, MS

(GMT )
West Delta

Weather History for KDLP - February, 2014

Change the Weather History Date:

Friday, February 7, 2014

  Actual Average Record
Temperature  
Mean Temperature 50 °F -  
Max Temperature 55 °F - - ()
Min Temperature 44 °F - - ()
Degree Days  
Heating Degree Days 16    
Moisture  
Dew Point 42 °F    
Average Humidity 76    
Maximum Humidity 81    
Minimum Humidity 71    
Precipitation  
Precipitation 0.00 in - - ()
Sea Level Pressure  
Sea Level Pressure 30.23 in    
Wind  
Wind Speed 12 mph (NE)    
Max Wind Speed 24 mph    
Max Gust Speed 29 mph    
Visibility 10 miles    
Events      
Averages and records for this station are not official NWS values.
T = Trace of Precipitation, MM = Missing Value Source: NWS Daily Summary

Daily Weather History Graph

Daily Weather History Graph

Search for Another Location

Airport or City:

Trip Planner

Search our weather history database for the weather conditions in past years. The results will help you decide how hot, cold, wet, or windy it might be!

Date:

Astronomy

Feb. 07, 2014 Rise Set
Actual Time 6:43 AM CST 5:41 PM CST
Civil Twilight 6:18 AM CST 6:06 PM CST
Nautical Twilight 5:50 AM CST 6:34 PM CST
Astronomical Twilight 5:22 AM CST 7:02 PM CST
Moon 11:57 AM CST (2/7) 12:55 AM CST (2/7)
Length of Visible Light 11h 47m
Length of Day
10h 58m
First Quarter, 59% of the Moon is Illuminated
Feb 7
First Quarter
Feb 14
Full
Feb 22
Last Quarter
Mar 1
New
Mar 8
First Quarter

Hourly Weather History & Observations

Time (CST) Temp. Windchill Dew Point Humidity Pressure Visibility Wind Dir Wind Speed Gust Speed Precip Events Conditions
12:15 AM 46.4 °F 41.9 °F 39.2 °F 76% 30.26 in 10.0 mi NE 9.2 mph 23.0 mph N/A   Overcast
12:35 AM 46.4 °F 41.9 °F 39.2 °F 76% 30.26 in 10.0 mi NNE 9.2 mph 24.2 mph N/A   Overcast
12:55 AM 48.2 °F - 39.2 °F 71% 30.26 in 10.0 mi NE 9.2 mph 17.3 mph N/A   Overcast
1:15 AM 48.2 °F - 41.0 °F 76% 30.25 in 10.0 mi NNE 12.7 mph 25.3 mph N/A   Overcast
1:35 AM 48.2 °F - 39.2 °F 71% 30.26 in 10.0 mi Variable 6.9 mph 24.2 mph N/A   Overcast
1:55 AM 48.2 °F - 41.0 °F 76% 30.26 in 10.0 mi NNE 11.5 mph 21.9 mph N/A   Overcast
2:15 AM 46.4 °F 40.4 °F 41.0 °F 81% 30.26 in 10.0 mi NNE 13.8 mph 21.9 mph N/A   Overcast
2:35 AM 46.4 °F 40.4 °F 41.0 °F 81% 30.25 in 10.0 mi NNE 13.8 mph 23.0 mph N/A   Overcast
2:55 AM 46.4 °F 40.1 °F 41.0 °F 81% 30.25 in 10.0 mi NNE 15.0 mph 24.2 mph N/A   Overcast
3:15 AM 44.6 °F 36.4 °F 39.2 °F 81% 30.24 in 10.0 mi NNE 20.7 mph 28.8 mph N/A   Overcast
3:35 AM 44.6 °F 35.7 °F 39.2 °F 81% 30.23 in 10.0 mi NNE 24.2 mph - N/A   Overcast
3:55 AM 44.6 °F - 39.2 °F 81% 30.25 in 10.0 mi North - - N/A   Overcast
4:15 AM 44.6 °F 37.2 °F 39.2 °F 81% 30.25 in 10.0 mi NNE 17.3 mph 27.6 mph N/A   Overcast
4:35 AM 46.4 °F 40.7 °F 39.2 °F 76% 30.25 in 10.0 mi NNE 12.7 mph 28.8 mph N/A   Overcast
4:55 AM 44.6 °F 37.2 °F 39.2 °F 81% 30.25 in - NNE 17.3 mph 24.2 mph N/A   Overcast
5:15 AM 44.6 °F 37.8 °F 39.2 °F 81% 30.26 in 10.0 mi NNE 15.0 mph 25.3 mph N/A   Overcast
5:35 AM 44.6 °F 37.2 °F 39.2 °F 81% 30.25 in 10.0 mi NNE 17.3 mph 23.0 mph N/A   Overcast
5:55 AM 44.6 °F 38.4 °F 37.4 °F 76% 30.26 in 10.0 mi NNE 12.7 mph 25.3 mph N/A   Overcast
6:15 AM 46.4 °F 41.1 °F 37.4 °F 71% 30.26 in 10.0 mi NE 11.5 mph 18.4 mph N/A   Overcast
6:35 AM 44.6 °F 38.8 °F 37.4 °F 76% 30.27 in 10.0 mi NNE 11.5 mph 24.2 mph N/A   Overcast
6:55 AM 46.4 °F 41.9 °F 37.4 °F 71% 30.27 in 10.0 mi NE 9.2 mph 19.6 mph N/A   Overcast
7:15 AM 46.4 °F 41.9 °F 39.2 °F 76% 30.26 in 10.0 mi NE 9.2 mph 21.9 mph N/A   Overcast
7:35 AM 46.4 °F 42.4 °F 39.2 °F 76% 30.28 in 10.0 mi NNE 8.1 mph 18.4 mph N/A   Overcast
7:55 AM 46.4 °F 41.5 °F 39.2 °F 76% 30.28 in 10.0 mi NNE 10.4 mph 16.1 mph N/A   Overcast
8:15 AM 46.4 °F 41.1 °F 39.2 °F 76% 30.29 in 10.0 mi NNE 11.5 mph 19.6 mph N/A   Overcast
8:35 AM 46.4 °F 42.4 °F 41.0 °F 81% 30.29 in 10.0 mi NNE 8.1 mph 15.0 mph N/A   Overcast
8:55 AM 48.2 °F - 41.0 °F 76% 30.30 in 10.0 mi NNE 9.2 mph 16.1 mph N/A   Overcast
9:15 AM 46.4 °F 41.5 °F 41.0 °F 81% 30.31 in 10.0 mi NNE 10.4 mph 21.9 mph N/A   Overcast
9:35 AM 48.2 °F - 41.0 °F 76% 30.30 in 10.0 mi NNE 9.2 mph 17.3 mph N/A   Overcast
9:55 AM 50.0 °F - 41.0 °F 71% 30.30 in 10.0 mi NNE 11.5 mph 17.3 mph N/A   Overcast
10:15 AM 48.2 °F - 41.0 °F 76% 30.31 in 10.0 mi Variable 5.8 mph 18.4 mph N/A   Overcast
10:35 AM 48.2 °F - 41.0 °F 76% 30.31 in 10.0 mi NNE 12.7 mph 20.7 mph N/A   Overcast
10:55 AM 46.4 °F 40.7 °F 41.0 °F 81% 30.31 in 10.0 mi NNE 12.7 mph 20.7 mph N/A   Overcast
11:15 AM 48.2 °F - 41.0 °F 76% 30.30 in 10.0 mi NNE 11.5 mph 17.3 mph N/A   Overcast
11:35 AM 50.0 °F - 41.0 °F 71% 30.28 in 10.0 mi NE 8.1 mph 20.7 mph N/A   Mostly Cloudy
11:55 AM 48.2 °F - 41.0 °F 76% 30.26 in 10.0 mi ENE 9.2 mph 21.9 mph N/A   Partly Cloudy
12:15 PM 50.0 °F - 42.8 °F 76% 30.25 in 10.0 mi Variable 6.9 mph 19.6 mph N/A   Clear
12:35 PM 50.0 °F - 42.8 °F 76% 30.23 in 9.0 mi ENE 12.7 mph 21.9 mph N/A   Scattered Clouds
12:55 PM 50.0 °F - 42.8 °F 76% 30.24 in 10.0 mi ENE 9.2 mph 19.6 mph N/A   Mostly Cloudy
1:15 PM 50.0 °F - 42.8 °F 76% 30.22 in 10.0 mi East 10.4 mph 21.9 mph N/A   Overcast
1:35 PM 50.0 °F - 42.8 °F 76% 30.21 in 10.0 mi ENE 10.4 mph 20.7 mph N/A   Overcast
1:55 PM 50.0 °F - 42.8 °F 76% 30.20 in 10.0 mi Variable 8.1 mph 16.1 mph N/A   Overcast
2:15 PM 50.0 °F - 42.8 °F 76% 30.20 in 10.0 mi Variable 6.9 mph 19.6 mph N/A   Overcast
2:35 PM 50.0 °F - 42.8 °F 76% 30.20 in 10.0 mi ENE 8.1 mph 19.6 mph N/A   Overcast
2:55 PM 51.8 °F - 42.8 °F 71% 30.19 in 10.0 mi ENE 8.1 mph 18.4 mph N/A   Mostly Cloudy
3:15 PM 51.8 °F - 42.8 °F 71% 30.19 in 10.0 mi ENE 9.2 mph 16.1 mph N/A   Overcast
3:35 PM 51.8 °F - 42.8 °F 71% 30.19 in 10.0 mi ENE 8.1 mph 23.0 mph N/A   Mostly Cloudy
3:55 PM 51.8 °F - 44.6 °F 76% 30.18 in 10.0 mi ENE 11.5 mph 21.9 mph N/A   Mostly Cloudy
4:15 PM 51.8 °F - 44.6 °F 76% 30.18 in 10.0 mi ENE 10.4 mph 19.6 mph N/A   Overcast
4:35 PM 51.8 °F - 44.6 °F 76% 30.18 in 10.0 mi ENE 12.7 mph 19.6 mph N/A   Overcast
4:55 PM 51.8 °F - 44.6 °F 76% 30.19 in 10.0 mi ENE 13.8 mph 19.6 mph N/A   Overcast
5:15 PM 51.8 °F - 44.6 °F 76% 30.19 in 10.0 mi East 12.7 mph 18.4 mph N/A   Overcast
5:35 PM 51.8 °F - 44.6 °F 76% 30.19 in 10.0 mi East 11.5 mph 19.6 mph N/A   Overcast
5:55 PM 51.8 °F - 44.6 °F 76% 30.19 in 10.0 mi East 12.7 mph - N/A   Overcast
6:15 PM 51.8 °F - 44.6 °F 76% 30.20 in 10.0 mi East 12.7 mph 20.7 mph N/A   Overcast
6:35 PM 51.8 °F - 44.6 °F 76% 30.20 in 10.0 mi East 12.7 mph 20.7 mph N/A   Overcast
6:55 PM 51.8 °F - 44.6 °F 76% 30.21 in 10.0 mi East 9.2 mph 18.4 mph N/A   Overcast
7:15 PM 51.8 °F - 44.6 °F 76% 30.22 in 10.0 mi ENE 9.2 mph 18.4 mph N/A   Overcast
7:35 PM 53.6 °F - 44.6 °F 72% 30.21 in 10.0 mi East 10.4 mph 20.7 mph N/A   Overcast
7:55 PM 53.6 °F - 44.6 °F 72% 30.22 in 10.0 mi East 6.9 mph 16.1 mph N/A   Overcast
8:15 PM 53.6 °F - 44.6 °F 72% 30.20 in 10.0 mi East 12.7 mph - N/A   Overcast
8:35 PM 53.6 °F - 44.6 °F 72% 30.20 in 10.0 mi East 13.8 mph 20.7 mph N/A   Overcast
8:55 PM 53.6 °F - 44.6 °F 72% 30.19 in 10.0 mi East 16.1 mph - N/A   Overcast
9:15 PM 53.6 °F - 44.6 °F 72% 30.19 in 10.0 mi East 17.3 mph - N/A   Overcast
9:35 PM 53.6 °F - 44.6 °F 72% 30.19 in 10.0 mi East 11.5 mph - N/A   Overcast
9:55 PM 53.6 °F - 44.6 °F 72% 30.20 in 10.0 mi East 13.8 mph - N/A   Overcast
10:15 PM 53.6 °F - 44.6 °F 72% 30.18 in 10.0 mi East 16.1 mph - N/A   Overcast
10:35 PM 53.6 °F - 46.4 °F 77% 30.18 in 7.0 mi East 17.3 mph - N/A   Mostly Cloudy
10:55 PM 53.6 °F - 46.4 °F 77% 30.17 in 10.0 mi East 16.1 mph - N/A   Mostly Cloudy
11:15 PM 55.4 °F - 46.4 °F 72% 30.16 in 10.0 mi ENE 10.4 mph - N/A   Mostly Cloudy
11:35 PM 53.6 °F - 46.4 °F 77% 30.15 in 10.0 mi ENE 13.8 mph 23.0 mph N/A   Overcast
11:55 PM 55.4 °F - 48.2 °F 77% 30.15 in 10.0 mi ENE 9.2 mph 17.3 mph N/A   Mostly Cloudy